TimeCDT,TemperatureF,Dew PointF,Humidity,Sea Level PressureIn,VisibilityMPH,Wind Direction,Wind SpeedMPH,Gust SpeedMPH,PrecipitationIn,Events,Conditions,WindDirDegrees,DateUTC
12:15 AM,22.8,17.1,79,30.05,10.0,Calm,Calm,-,N/A,,Clear,0,2013-03-22 05:15:00
12:35 AM,22.1,16.7,80,30.04,10.0,Calm,Calm,-,N/A,,Clear,0,2013-03-22 05:35:00
12:55 AM,20.1,16.2,85,30.04,10.0,Calm,Calm,-,N/A,,Clear,0,2013-03-22 05:55:00
1:15 AM,18.3,15.6,89,30.05,10.0,Calm,Calm,-,N/A,,Clear,0,2013-03-22 06:15:00
1:35 AM,18.3,16.3,92,30.05,10.0,Calm,Calm,-,N/A,,Clear,0,2013-03-22 06:35:00
1:55 AM,17.4,15.8,93,30.05,10.0,Calm,Calm,-,N/A,,Clear,0,2013-03-22 06:55:00
2:15 AM,18.0,15.6,91,30.05,10.0,Calm,Calm,-,N/A,,Clear,0,2013-03-22 07:15:00
2:35 AM,17.2,15.8,94,30.05,10.0,Calm,Calm,-,N/A,,Clear,0,2013-03-22 07:35:00
2:55 AM,15.6,13.1,90,30.05,10.0,Calm,Calm,-,N/A,,Clear,0,2013-03-22 07:55:00
3:15 AM,16.9,15.6,95,30.05,10.0,Calm,Calm,-,N/A,,Clear,0,2013-03-22 08:15:00
3:35 AM,17.4,15.1,91,30.04,10.0,Calm,Calm,-,N/A,,Clear,0,2013-03-22 08:35:00
3:55 AM,16.2,14.2,92,30.04,10.0,Calm,Calm,-,N/A,,Clear,0,2013-03-22 08:55:00
4:35 AM,16.3,14.9,94,30.05,10.0,Calm,Calm,-,N/A,,Clear,0,2013-03-22 09:35:00
4:55 AM,16.2,14.2,92,30.05,10.0,Calm,Calm,-,N/A,,Clear,0,2013-03-22 09:55:00
5:15 AM,15.3,13.5,93,30.04,10.0,Calm,Calm,-,N/A,,Clear,0,2013-03-22 10:15:00
5:35 AM,14.9,13.3,93,30.05,10.0,Calm,Calm,-,N/A,,Clear,0,2013-03-22 10:35:00
6:15 AM,15.1,13.6,94,30.06,10.0,Calm,Calm,-,N/A,,Clear,0,2013-03-22 11:15:00
6:35 AM,14.4,12.7,93,30.06,7.0,Calm,Calm,-,N/A,,Clear,0,2013-03-22 11:35:00
6:55 AM,14.9,13.5,94,30.06,7.0,Calm,Calm,-,N/A,,Clear,0,2013-03-22 11:55:00
7:15 AM,14.9,13.1,93,30.06,10.0,Calm,Calm,-,N/A,,Clear,0,2013-03-22 12:15:00
7:35 AM,16.9,14.9,92,30.06,10.0,Calm,Calm,-,N/A,,Clear,0,2013-03-22 12:35:00
7:55 AM,20.7,17.8,89,30.05,10.0,Calm,Calm,-,N/A,,Clear,0,2013-03-22 12:55:00
8:15 AM,23.5,16.2,73,30.05,10.0,Calm,Calm,-,N/A,,Clear,0,2013-03-22 13:15:00
8:35 AM,25.0,15.8,68,30.05,10.0,Calm,Calm,-,N/A,,Clear,0,2013-03-22 13:35:00
8:55 AM,26.6,15.4,63,30.05,10.0,Calm,Calm,-,N/A,,Clear,0,2013-03-22 13:55:00
9:15 AM,27.5,14.9,59,30.06,10.0,Calm,Calm,-,N/A,,Clear,0,2013-03-22 14:15:00
9:35 AM,28.4,14.9,57,30.06,10.0,WSW,4.6,-,N/A,,Clear,250,2013-03-22 14:35:00
10:15 AM,30.6,14.9,52,30.06,10.0,West,6.9,-,N/A,,Clear,270,2013-03-22 15:15:00
10:35 AM,32.0,15.6,51,30.06,10.0,WNW,6.9,-,N/A,,Clear,290,2013-03-22 15:35:00
10:55 AM,32.0,15.6,51,30.06,10.0,West,4.6,-,N/A,,Clear,270,2013-03-22 15:55:00
11:15 AM,32.4,14.7,48,30.06,10.0,West,6.9,-,N/A,,Clear,270,2013-03-22 16:15:00
11:35 AM,33.1,15.3,48,30.06,10.0,West,6.9,-,N/A,,Clear,270,2013-03-22 16:35:00
12:15 PM,34.2,16.0,47,30.06,10.0,WNW,4.6,-,N/A,,Clear,290,2013-03-22 17:15:00
12:35 PM,35.4,16.7,47,30.05,10.0,WSW,5.8,-,N/A,,Clear,250,2013-03-22 17:35:00
12:55 PM,35.6,16.5,46,30.05,10.0,WSW,8.1,-,N/A,,Clear,250,2013-03-22 17:55:00
1:15 PM,36.0,16.3,45,30.04,10.0,WNW,5.8,-,N/A,,Clear,290,2013-03-22 18:15:00
1:35 PM,36.7,16.7,44,30.03,10.0,Calm,Calm,-,N/A,,Clear,0,2013-03-22 18:35:00
2:15 PM,36.3,16.3,44,30.01,10.0,West,5.8,-,N/A,,Clear,280,2013-03-22 19:15:00
2:35 PM,37.4,17.8,45,30.01,10.0,SSW,4.6,-,N/A,,Clear,210,2013-03-22 19:35:00
2:55 PM,38.3,18.0,44,30.00,10.0,WNW,4.6,-,N/A,,Clear,300,2013-03-22 19:55:00
3:15 PM,38.5,17.8,43,30.00,10.0,WSW,5.8,-,N/A,,Clear,240,2013-03-22 20:15:00
3:35 PM,37.8,17.1,43,30.00,10.0,Calm,Calm,-,N/A,,Clear,0,2013-03-22 20:35:00
3:55 PM,38.8,17.8,43,30.00,10.0,West,5.8,-,N/A,,Clear,280,2013-03-22 20:55:00
4:15 PM,38.8,18.0,43,30.01,10.0,West,6.9,-,N/A,,Clear,280,2013-03-22 21:15:00
4:35 PM,39.2,18.1,43,30.01,10.0,WNW,5.8,-,N/A,,Clear,300,2013-03-22 21:35:00
4:55 PM,39.2,17.8,42,30.01,10.0,NW,5.8,-,N/A,,Clear,310,2013-03-22 21:55:00
5:15 PM,39.2,18.1,43,30.01,10.0,NNW,6.9,-,N/A,,Clear,330,2013-03-22 22:15:00
5:35 PM,39.2,17.6,42,30.02,10.0,West,4.6,-,N/A,,Clear,280,2013-03-22 22:35:00
5:55 PM,38.3,16.7,42,30.02,10.0,NW,3.5,-,N/A,,Clear,320,2013-03-22 22:55:00
6:15 PM,37.9,17.1,43,30.03,10.0,NW,3.5,-,N/A,,Clear,310,2013-03-22 23:15:00
6:35 PM,36.7,16.9,45,30.03,10.0,NNW,4.6,-,N/A,,Clear,330,2013-03-22 23:35:00
6:55 PM,34.9,17.2,49,30.03,10.0,North,5.8,-,N/A,,Clear,350,2013-03-22 23:55:00
7:15 PM,33.6,17.4,52,30.03,10.0,North,4.6,-,N/A,,Clear,350,2013-03-23 00:15:00
7:35 PM,33.3,17.6,53,30.02,10.0,North,4.6,-,N/A,,Clear,350,2013-03-23 00:35:00
7:55 PM,32.7,17.6,54,30.03,10.0,Calm,Calm,-,N/A,,Clear,0,2013-03-23 00:55:00
8:15 PM,32.9,17.2,53,30.03,10.0,Calm,Calm,-,N/A,,Clear,0,2013-03-23 01:15:00
8:35 PM,32.4,17.4,54,30.04,10.0,Calm,Calm,-,N/A,,Clear,0,2013-03-23 01:35:00
8:55 PM,32.0,17.6,55,30.05,10.0,NNW,3.5,-,N/A,,Clear,340,2013-03-23 01:55:00
9:35 PM,31.3,18.5,59,30.06,10.0,North,3.5,-,N/A,,Clear,350,2013-03-23 02:35:00
9:55 PM,30.6,19.2,63,30.06,10.0,NNE,4.6,-,N/A,,Clear,20,2013-03-23 02:55:00
10:15 PM,30.9,18.9,61,30.06,10.0,Calm,Calm,-,N/A,,Clear,0,2013-03-23 03:15:00
10:35 PM,30.0,18.9,63,30.06,10.0,Calm,Calm,-,N/A,,Clear,0,2013-03-23 03:35:00
11:15 PM,29.3,19.9,68,30.05,10.0,ENE,4.6,-,N/A,,Clear,60,2013-03-23 04:15:00
11:35 PM,29.8,20.3,68,30.05,10.0,Calm,Calm,-,N/A,,Clear,0,2013-03-23 04:35:00
11:55 PM,29.5,20.7,70,30.05,10.0,NE,3.5,-,N/A,,Clear,50,2013-03-23 04:55:00